SCP
0 0 0 0 0 0 0 0 0 0 0 -0 0 0 0 -0 0 0 0 0 0 -0
0 0 0 0 0 0 0 0 0 0 -0 -0 0 0 0 0 0 0 0 0 -0 0
0 0 0 0 0 0 0 0 0 -0 -0 -0 -0 0 -0 0 0 0 0 0 -0 0
0 0 0 0 0 0 0 0 0 -0 -0 -0 -0 -0 0 0 0 0 -0 0 -0 -0
0 0 0 0 0 0 0 0 -0 -0 -0 -0 -0 -0 -0 -0 0 0 0 0 0 -0
0 0 0 0 0 0 0 -0 -0 0 0 0 -0 -0 0 0 0 0 0 0 0 0
0 0 0 0 0 0 0 -0 -0 -0 0 0 -0 -0 -0 -0 -0 -0 0 0 0 0
0 0 0 0 0 0 0 -0 -0 0 0 0 0 0 0 0 0 0 -0 -0 0 0
-0 0 0 0 0 0 0 -0 -0 0 0 0 0 0 -0 -0 -0 -0 -0 0 0 0
-0 -0 0 0 0 0 -0 -0 -0 0 0 0 0 0 0 -0 0 0 0 0 0 0
-0 0 0 0 0 0 0 0 -0 -0 -0 -0 0 0 0 0 -0 -0 -0 -0 -0 0
0 -0 0 0 0 0 0 0 0 -0 -0 -0 0 0 0 0 0 -0 -0 -0 -0 -0
-0 -0 0 0 0 0 0 0 -0 -0 -0 -0 0 0 0 0 0 0 -0 -0 0 -0
-0 -0 0 0 0 0 0 0 -0 -0 -0 0 0 0 0 0 0 0 0 0 0 0
Wind_Speed_500mb
33 28 26 24 25 21 21 20 19 19 22 19 14 13 14 12 9 10 10 19 25 29
30 29 23 17 17 18 20 14 13 15 16 16 14 14 13 8 10 11 14 17 21 19
19 16 11 13 17 14 14 10 10 13 15 17 19 15 9 11 9 8 11 16 21 24
15 10 9 11 11 12 12 12 10 12 15 20 17 11 6 9 7 5 8 12 18 22
16 9 10 11 13 10 13 14 17 20 18 13 11 4 6 9 6 8 7 11 6 13
12 8 12 12 11 12 17 22 21 21 16 15 12 10 8 7 6 7 9 12 11 12
6 4 15 12 11 13 21 25 20 18 13 12 10 9 8 8 8 12 16 15 14 17
10 6 14 13 12 14 23 26 22 20 17 16 12 11 8 10 10 13 11 12 16 17
14 14 11 11 15 15 20 28 26 26 18 14 10 8 6 10 14 13 10 12 17 18
17 14 9 7 17 18 19 27 27 24 18 17 16 11 9 13 11 13 13 16 14 13
21 21 15 7 15 19 22 26 26 22 20 20 17 16 16 19 15 13 12 13 7 11
28 21 21 11 14 22 25 27 25 23 20 18 22 20 14 21 21 16 12 11 11 9
27 24 25 13 17 24 24 24 26 25 21 20 25 20 21 20 22 18 15 16 16 14
35 29 26 17 20 25 24 26 27 21 23 28 25 20 15 19 16 14 17 17 19 24
Wind_Direction_500mb
196 204 206 216 235 247 259 259 249 233 214 221 231 225 208 200 232 225 222 214 216 222
205 216 215 217 241 257 254 239 230 203 203 210 206 193 184 206 209 232 229 222 215 213
179 191 216 253 255 231 218 207 200 196 198 192 182 175 179 188 212 238 233 211 218 219
154 188 240 235 203 191 200 183 168 173 172 172 174 164 177 214 227 223 210 223 227 222
185 203 228 201 188 190 188 166 146 135 143 151 163 185 216 214 204 222 250 202 210 211
181 247 188 176 170 182 176 158 149 155 163 173 170 207 227 219 190 159 153 152 141 160
183 168 187 176 168 176 176 169 158 148 155 178 184 210 199 177 157 161 162 142 126 127
172 165 175 179 168 169 179 176 165 156 159 172 194 179 174 174 154 142 161 158 146 134
179 150 132 170 177 172 175 176 175 171 174 171 189 199 195 186 173 169 178 160 156 178
169 171 157 134 183 185 179 178 181 178 191 193 206 216 192 167 165 180 177 160 158 178
175 183 194 191 189 185 172 183 177 189 203 209 219 192 186 161 159 160 151 142 130 140
182 192 196 206 193 186 181 187 188 192 204 202 195 186 198 165 164 167 162 159 134 130
192 208 197 200 188 187 195 193 190 189 199 199 193 178 166 172 176 180 183 176 174 172
201 207 196 194 184 191 196 192 185 190 175 178 177 174 186 200 200 194 172 178 177 163
Wind_Speed_850mb
33 28 26 24 25 21 21 20 19 19 22 19 14 13 14 12 9 10 10 19 25 29
30 29 23 17 17 18 20 14 13 15 16 16 14 14 13 8 10 11 14 17 21 19
19 16 11 13 17 14 14 10 10 13 15 17 19 15 9 11 9 8 11 16 21 24
15 10 9 11 11 12 12 12 10 12 15 20 17 11 6 9 7 5 8 12 18 22
16 9 10 11 13 10 13 14 17 20 18 13 11 4 6 9 6 8 7 11 6 13
12 8 12 12 11 12 17 22 21 21 16 15 12 10 8 7 6 7 9 12 11 12
6 4 15 12 11 13 21 25 20 18 13 12 10 9 8 8 8 12 16 15 14 17
10 6 14 13 12 14 23 26 22 20 17 16 12 11 8 10 10 13 11 12 16 17
14 14 11 11 15 15 20 28 26 26 18 14 10 8 6 10 14 13 10 12 17 18
17 14 9 7 17 18 19 27 27 24 18 17 16 11 9 13 11 13 13 16 14 13
21 21 15 7 15 19 22 26 26 22 20 20 17 16 16 19 15 13 12 13 7 11
28 21 21 11 14 22 25 27 25 23 20 18 22 20 14 21 21 16 12 11 11 9
27 24 25 13 17 24 24 24 26 25 21 20 25 20 21 20 22 18 15 16 16 14
35 29 26 17 20 25 24 26 27 21 23 28 25 20 15 19 16 14 17 17 19 24
Wind_Direction_850mb
196 204 206 216 235 247 259 259 249 233 214 221 231 225 208 200 232 225 222 214 216 222
205 216 215 217 241 257 254 239 230 203 203 210 206 193 184 206 209 232 229 222 215 213
179 191 216 253 255 231 218 207 200 196 198 192 182 175 179 188 212 238 233 211 218 219
154 188 240 235 203 191 200 183 168 173 172 172 174 164 177 214 227 223 210 223 227 222
185 203 228 201 188 190 188 166 146 135 143 151 163 185 216 214 204 222 250 202 210 211
181 247 188 176 170 182 176 158 149 155 163 173 170 207 227 219 190 159 153 152 141 160
183 168 187 176 168 176 176 169 158 148 155 178 184 210 199 177 157 161 162 142 126 127
172 165 175 179 168 169 179 176 165 156 159 172 194 179 174 174 154 142 161 158 146 134
179 150 132 170 177 172 175 176 175 171 174 171 189 199 195 186 173 169 178 160 156 178
169 171 157 134 183 185 179 178 181 178 191 193 206 216 192 167 165 180 177 160 158 178
175 183 194 191 189 185 172 183 177 189 203 209 219 192 186 161 159 160 151 142 130 140
182 192 196 206 193 186 181 187 188 192 204 202 195 186 198 165 164 167 162 159 134 130
192 208 197 200 188 187 195 193 190 189 199 199 193 178 166 172 176 180 183 176 174 172
201 207 196 194 184 191 196 192 185 190 175 178 177 174 186 200 200 194 172 178 177 163